KA2FNK Weather Reports


time (UTC)temp
C
wind
direction
speed
KPH
gust
KPH
rain 1hr
cm
rain 24hr
cm
rain mn
cm
humidity
%
barometer
mb
20260502180503 15 341 0.0 0.0 0.00 0.00 0.00 45 1021.0
20260502170451 13 80 0.0 3.2 0.00 0.00 0.00 46 1021.5
20260502163946 13 39 6.4 9.7 0.00 0.00 0.00 47 1021.6
20260502163445 13 337 0.0 16.1 0.00 0.00 0.00 49 1021.6
20260502162944 13 21 0.0 6.4 0.00 0.00 0.00 49 1021.6
20260502162443 13 352 0.0 4.8 0.00 0.00 0.00 50 1021.6
20260502161943 13 226 0.0 1.6 0.00 0.00 0.00 50 1021.6
20260502161441 12 4 0.0 1.6 0.00 0.00 0.00 49 1021.7
20260502160940 12 4 0.0 0.0 0.00 0.00 0.00 50 1021.7
20260502160439 12 4 0.0 11.3 0.00 0.00 0.00 50 1021.8
20260502151930 12 75 0.0 6.4 0.00 0.00 0.00 58 1021.5
20260502151429 12 4 0.0 11.3 0.00 0.00 0.00 57 1021.7
20260502150928 11 63 1.6 8.0 0.00 0.00 0.00 59 1021.7
20260502150427 11 45 4.8 14.5 0.00 0.00 0.00 58 1021.8
20260502130403 6 333 0.0 0.0 0.00 0.00 0.00 73 1021.1
20260502123357 6 327 0.0 3.2 0.00 0.00 0.00 75 1020.9
20260502122856 6 9 0.0 0.0 0.00 0.00 0.00 75 1020.8
20260502122355 6 9 0.0 0.0 0.00 0.00 0.00 75 1020.8
20260502121854 6 9 0.0 0.0 0.00 0.00 0.00 75 1020.6
20260502121353 5 9 0.0 0.0 0.00 0.00 0.00 75 1020.6
20260502120852 5 9 0.0 0.0 0.00 0.00 0.00 76 1020.5
20260502120351 5 9 0.0 0.0 0.00 0.00 0.00 75 1020.5
20260502115850 5 9 0.0 1.6 0.00 0.00 0.00 75 1020.4
20260502115349 5 9 0.0 0.0 0.00 0.00 0.00 75 1020.3
20260502114848 5 9 0.0 0.0 0.00 0.00 0.00 75 1020.2
20260502114347 5 9 0.0 0.0 0.00 0.00 0.00 75 1020.2
20260502113846 5 9 0.0 0.0 0.00 0.00 0.00 75 1020.1
20260502113345 5 9 0.0 0.0 0.00 0.00 0.00 75 1020.1
20260502112844 5 9 0.0 0.0 0.00 0.00 0.00 75 1020.0
20260502112343 5 9 0.0 0.0 0.00 0.00 0.00 75 1020.0
20260502111842 5 9 0.0 0.0 0.00 0.00 0.00 74 1019.9
20260502111341 5 9 0.0 0.0 0.00 0.00 0.00 74 1019.9
20260502110840 5 9 0.0 0.0 0.00 0.00 0.00 73 1020.0
20260502110339 5 9 0.0 0.0 0.00 0.00 0.00 73 1019.9
20260502105838 5 9 0.0 0.0 0.00 0.00 0.00 73 1019.9
20260502105337 5 9 0.0 0.0 0.00 0.00 0.00 73 1019.9
20260502104836 5 9 0.0 0.0 0.00 0.00 0.00 72 1019.9
20260502104335 5 9 0.0 0.0 0.00 0.00 0.00 72 1020.0
20260502103834 5 9 0.0 0.0 0.00 0.00 0.00 72 1019.9
20260502103333 5 9 0.0 0.0 0.00 0.00 0.00 71 1019.8
20260502102832 5 9 0.0 0.0 0.00 0.00 0.00 72 1019.8
20260502102331 5 9 0.0 0.0 0.00 0.00 0.00 72 1019.8
20260502101830 6 9 0.0 0.0 0.00 0.00 0.00 72 1019.8
20260502101329 6 9 0.0 0.0 0.00 0.00 0.00 72 1019.6
20260502100828 6 9 0.0 0.0 0.00 0.00 0.00 72 1019.6
20260502100327 6 9 0.0 0.0 0.00 0.00 0.00 69 1019.6
20260502091317 6 9 0.0 0.0 0.00 0.00 0.00 67 1019.3
20260502090816 6 9 0.0 0.0 0.00 0.00 0.00 67 1019.3
20260502090315 6 9 0.0 0.0 0.00 0.00 0.00 66 1019.3
20260502071253 7 360 0.0 4.8 0.00 0.00 0.00 60 1019.1
20260502070752 7 9 0.0 0.0 0.00 0.00 0.00 61 1019.1
20260502070251 8 9 0.0 0.0 0.00 0.00 0.00 61 1019.1
20260502065750 8 9 0.0 0.0 0.00 0.00 0.00 61 1019.2
20260502065249 8 9 0.0 0.0 0.00 0.00 0.00 61 1019.1
20260502064748 8 9 0.0 0.0 0.00 0.00 0.00 61 1019.1
20260502064247 8 9 0.0 0.0 0.00 0.00 0.00 60 1019.1
20260502063746 8 9 0.0 0.0 0.00 0.00 0.00 60 1019.1
20260502063245 8 9 0.0 0.0 0.00 0.00 0.00 60 1019.2
20260502062744 8 9 0.0 0.0 0.00 0.00 0.00 60 1019.2
20260502062243 8 9 0.0 0.0 0.00 0.00 0.00 59 1019.1
20260502061742 8 9 0.0 0.0 0.00 0.00 0.00 60 1019.2
20260502061241 8 9 0.0 0.0 0.00 0.00 0.00 59 1019.2
20260502060740 8 9 0.0 0.0 0.00 0.00 0.00 58 1019.2
20260502060239 8 9 0.0 0.0 0.00 0.00 0.00 59 1019.2
20260502055738 8 9 0.0 0.0 0.00 0.00 0.00 60 1019.2
20260502055237 8 9 0.0 0.0 0.00 0.00 0.00 60 1019.2
20260502054736 8 9 0.0 0.0 0.00 0.00 0.00 60 1019.2
20260502054235 8 9 0.0 0.0 0.00 0.00 0.00 59 1019.2
20260502053734 8 9 0.0 1.6 0.00 0.00 0.00 59 1019.2
20260502053233 8 358 0.0 0.0 0.00 0.00 0.00 60 1019.1
20260502052732 9 358 0.0 4.8 0.00 0.00 0.00 59 1019.2
20260502052231 9 357 0.0 6.4 0.00 0.00 0.00 58 1019.1
20260502051730 9 7 0.0 3.2 0.00 0.00 0.00 59 1019.2
20260502051229 9 1 0.0 0.0 0.00 0.00 0.00 59 1019.1
20260502050728 9 1 0.0 9.7 0.00 0.00 0.00 55 1019.1
20260502050227 10 28 0.0 0.0 0.00 0.00 0.00 60 1019.2
20260502045726 9 28 0.0 0.0 0.00 0.00 0.00 51 1019.1
20260502045225 9 28 0.0 0.0 0.00 0.00 0.00 52 1019.1
20260502044724 10 28 0.0 0.0 0.00 0.00 0.00 57 1019.1
20260502044223 10 28 0.0 0.0 0.00 0.00 0.00 57 1019.0
20260502043722 10 28 0.0 3.2 0.00 0.00 0.00 57 1019.0
20260502043221 10 355 0.0 8.0 0.00 0.00 0.00 57 1019.0
20260502042720 10 12 0.0 4.8 0.00 0.00 0.00 56 1018.9
20260502042219 10 22 0.0 6.4 0.00 0.00 0.00 56 1018.9
20260502041718 10 354 0.0 0.0 0.00 0.00 0.00 57 1019.0
20260502041217 10 354 0.0 0.0 0.00 0.00 0.00 57 1018.9
20260502040716 11 354 0.0 0.0 0.00 0.00 0.00 56 1018.8
20260502040215 11 354 0.0 0.0 0.00 0.00 0.00 56 1018.8
20260502035714 11 354 0.0 0.0 0.00 0.00 0.00 55 1018.8
20260502035213 11 354 0.0 0.0 0.00 0.00 0.00 56 1018.7
20260502034712 11 354 0.0 0.0 0.00 0.00 0.00 55 1018.7
20260502034211 11 354 0.0 0.0 0.00 0.00 0.00 55 1018.7
20260502033710 11 354 0.0 0.0 0.00 0.00 0.00 54 1018.6
20260502033209 11 354 0.0 0.0 0.00 0.00 0.00 54 1018.6
20260502032708 11 354 0.0 0.0 0.00 0.00 0.00 54 1018.6
20260502032207 11 354 0.0 0.0 0.00 0.00 0.00 54 1018.5
20260502031706 11 354 0.0 0.0 0.00 0.00 0.00 54 1018.4
20260502031205 11 354 0.0 0.0 0.00 0.00 0.00 53 1018.4
20260502030704 11 354 0.0 0.0 0.00 0.00 0.00 54 1018.4
20260502030203 12 354 0.0 0.0 0.00 0.00 0.00 54 1018.3
20260502025702 12 354 0.0 0.0 0.00 0.00 0.00 54 1018.2
20260502025201 12 354 0.0 0.0 0.00 0.00 0.00 53 1018.1
20260502024700 12 354 0.0 0.0 0.00 0.00 0.00 52 1018.0
20260502024159 12 354 0.0 0.0 0.00 0.00 0.00 51 1018.0
20260502023658 12 354 0.0 1.6 0.00 0.00 0.00 53 1017.8
20260502023157 12 354 1.6 6.4 0.00 0.00 0.00 52 1017.7
20260502022656 12 37 0.0 0.0 0.00 0.00 0.00 52 1017.7
20260502022155 12 37 0.0 0.0 0.00 0.00 0.00 51 1017.5
20260502021654 12 37 0.0 0.0 0.00 0.00 0.00 51 1017.5
20260502021153 12 37 0.0 0.0 0.00 0.00 0.00 51 1017.4
20260502020652 12 37 0.0 0.0 0.00 0.00 0.00 51 1017.3
20260502020151 13 37 0.0 0.0 0.00 0.00 0.00 51 1017.3
20260502015650 13 37 0.0 0.0 0.00 0.00 0.00 51 1017.2
20260502015149 13 37 0.0 0.0 0.00 0.00 0.00 52 1017.2
20260502014648 13 37 0.0 0.0 0.00 0.00 0.00 50 1017.1
20260502014147 13 37 0.0 0.0 0.00 0.00 0.00 50 1017.0
20260502013646 13 37 0.0 0.0 0.00 0.00 0.00 48 1017.0
20260502013145 13 37 0.0 0.0 0.00 0.00 0.00 50 1016.9
20260502012644 13 37 0.0 4.8 0.00 0.00 0.00 48 1016.8
20260502012143 14 329 0.0 3.2 0.00 0.00 0.00 49 1016.8
20260502011642 14 340 0.0 0.0 0.00 0.00 0.00 48 1016.7
20260502011141 14 340 0.0 3.2 0.00 0.00 0.00 47 1016.6
20260502010640 14 19 0.0 1.6 0.00 0.00 0.00 47 1016.5
20260502010139 14 19 0.0 1.6 0.00 0.00 0.00 46 1016.4
20260502005638 15 19 0.0 8.0 0.00 0.00 0.00 46 1016.4
20260502005137 15 330 0.0 12.9 0.00 0.00 0.00 46 1016.3
20260502004636 15 327 4.8 4.8 0.00 0.00 0.00 44 1016.2
20260502004135 15 1 4.8 8.0 0.00 0.00 0.00 44 1016.2
20260502003634 15 340 3.2 17.7 0.00 0.00 0.00 44 1016.1
20260502003133 15 310 0.0 6.4 0.00 0.00 0.00 43 1016.0
20260502002632 15 293 0.0 9.7 0.00 0.00 0.00 43 1016.0
20260502002131 15 324 3.2 11.3 0.00 0.00 0.00 43 1015.9
20260502001630 15 305 0.0 0.0 0.00 0.00 0.00 43 1015.9
20260502001129 15 344 3.2 9.7 0.00 0.00 0.00 42 1015.9
20260502000628 15 317 3.2 9.7 0.00 0.00 0.00 42 1015.9
20260502000127 16 1 0.0 14.5 0.00 0.00 0.00 42 1015.9
20260501235626 16 323 0.0 8.0 0.00 0.00 0.00 42 1015.9
20260501235125 16 330 4.8 9.7 0.00 0.00 0.00 43 1015.8
20260501234624 16 33 12.9 16.1 0.00 0.00 0.00 41 1015.9
20260501234123 16 298 0.0 9.7 0.00 0.00 0.00 41 1015.7
20260501233622 16 360 0.0 12.9 0.00 0.00 0.00 40 1015.8
20260501233121 16 315 0.0 9.7 0.00 0.00 0.00 39 1015.7
20260501232620 16 317 6.4 16.1 0.00 0.00 0.00 39 1015.7
20260501232119 16 316 4.8 4.8 0.00 0.00 0.00 39 1015.7
20260501231618 16 307 0.0 0.0 0.00 0.00 0.00 40 1015.7
20260501231117 16 307 0.0 12.9 0.00 0.00 0.00 40 1015.6
20260501230616 16 250 0.0 9.7 0.00 0.00 0.00 39 1015.7
20260501230115 16 333 1.6 8.0 0.00 0.00 0.00 38 1015.7
20260501225614 16 271 0.0 11.3 0.00 0.00 0.00 40 1015.7
20260501225113 16 298 0.0 6.4 0.00 0.00 0.00 38 1015.6
20260501224612 16 292 0.0 0.0 0.00 0.00 0.00 39 1015.7
20260501224111 16 292 0.0 0.0 0.00 0.00 0.00 38 1015.7
20260501223610 16 292 0.0 9.7 0.00 0.00 0.00 40 1015.8
20260501223109 16 307 0.0 12.9 0.00 0.00 0.00 38 1015.7
20260501222608 16 331 8.0 19.3 0.00 0.00 0.00 38 1015.8
20260501222107 16 331 6.4 11.3 0.00 0.00 0.00 39 1015.7
20260501221606 16 309 6.4 12.9 0.00 0.00 0.00 40 1015.7
20260501221105 16 303 3.2 14.5 0.00 0.00 0.00 38 1015.8
20260501220604 17 358 0.0 3.2 0.00 0.00 0.00 41 1015.8
20260501215602 17 303 0.0 14.5 0.00 0.00 0.00 38 1016.0
20260501215101 17 324 0.0 11.3 0.00 0.00 0.00 38 1016.0
20260501214600 16 326 0.0 16.1 0.00 0.00 0.00 41 1016.0
20260501214059 16 334 4.8 12.9 0.00 0.00 0.00 41 1016.0
20260501213558 16 277 0.0 9.7 0.00 0.00 0.00 40 1016.1
20260501213057 16 317 4.8 11.3 0.00 0.00 0.00 40 1016.3
20260501212556 16 312 0.0 12.9 0.00 0.00 0.00 43 1016.4
20260501212055 16 303 0.0 9.7 0.00 0.00 0.00 43 1016.4
20260501211554 16 248 4.8 12.9 0.00 0.00 0.00 41 1016.6
20260501211053 16 313 0.0 9.7 0.00 0.00 0.00 43 1016.6
20260501210552 16 299 0.0 12.9 0.00 0.00 0.00 42 1016.7
20260501210051 16 336 0.0 12.9 0.00 0.00 0.00 44 1016.6
20260501205550 16 288 0.0 14.5 0.00 0.00 0.00 45 1016.7
20260501205049 16 268 0.0 9.7 0.00 0.00 0.00 43 1016.8
20260501204548 16 358 1.6 9.7 0.00 0.00 0.00 42 1017.0
20260501204048 16 298 4.8 11.3 0.00 0.00 0.00 41 1016.9
20260501203546 16 317 3.2 12.9 0.00 0.00 0.00 40 1017.0
20260501203045 16 296 6.4 17.7 0.00 0.00 0.00 41 1017.1
20260501202544 16 351 0.0 14.5 0.00 0.00 0.00 41 1017.0
20260501202043 16 240 0.0 0.0 0.00 0.00 0.00 46 1017.2
20260501201542 16 240 0.0 0.0 0.00 0.00 0.00 44 1017.2
20260501201041 16 240 0.0 0.0 0.00 0.00 0.00 44 1017.2
20260501200540 16 240 0.0 0.0 0.00 0.00 0.00 44 1017.3
20260501200039 16 240 0.0 0.0 0.00 0.00 0.00 42 1017.4
20260501195538 16 240 0.0 9.7 0.00 0.00 0.00 41 1017.4
20260501195038 16 270 0.0 6.4 0.00 0.00 0.00 45 1017.4
20260501194536 16 298 0.0 12.9 0.00 0.00 0.00 42 1017.6
20260501194035 16 293 0.0 4.8 0.00 0.00 0.00 43 1017.6
20260501193534 16 315 0.0 8.0 0.00 0.00 0.00 41 1017.6
20260501193033 17 354 0.0 16.1 0.00 0.00 0.00 43 1017.7
20260501192532 17 268 0.0 11.3 0.00 0.00 0.00 42 1017.6
20260501192031 17 350 0.0 8.0 0.00 0.00 0.00 41 1017.7
20260501191530 17 264 0.0 19.3 0.00 0.00 0.00 38 1017.6
20260501191029 17 293 9.7 12.9 0.00 0.00 0.00 43 1017.6
20260501190528 17 262 0.0 8.0 0.00 0.00 0.00 41 1017.6
20260501190027 16 288 0.0 17.7 0.00 0.00 0.00 40 1017.7
20260501185526 16 262 0.0 3.2 0.00 0.00 0.00 40 1018.0
20260501185025 16 282 1.6 4.8 0.00 0.00 0.00 42 1018.0
20260501184524 16 302 4.8 6.4 0.00 0.00 0.00 43 1018.0
20260501184024 16 257 0.0 4.8 0.00 0.00 0.00 43 1018.0
20260501183522 16 232 6.4 9.7 0.00 0.00 0.00 42 1018.0
20260501183022 16 215 0.0 0.0 0.00 0.00 0.00 44 1018.1
20260501182520 16 215 0.0 6.4 0.00 0.00 0.00 42 1018.0
20260501182019 16 229 0.0 6.4 0.00 0.00 0.00 43 1018.1
20260501181518 16 343 0.0 6.4 0.00 0.00 0.00 44 1018.1
20260501181017 16 14 0.0 12.9 0.00 0.00 0.00 41 1018.1